Home   Weather   Prospect   Past weeks
Flag for USA

Past Weather in Prospect, Kentucky, USA — Yesterday and Last 2 Weeks

Now
43 °F

Overcast.


Feels Like: 39 °F
Forecast: 52 / 37 °F
Wind: 7 mph from West

Location: Bowman Field

Current Time: Mar 21, 2019 at 11:14:16 pm

Latest Report: Mar 21, 2019 at 9:53 pm


Visibility: 10 mi

Pressure: 30.05 "Hg

Humidity: 74%

Dew Point: 35 °F

Location of ProspectLocation

Past Weather in Prospect — Graph

°F

Prospect Temperature Yesterday

Maximum temperature yesterday: 61 °F (at 3:53 pm)
Minimum temperature yesterday: 38 °F (at 3:53 am)
Average temperature yesterday: 49 °F

High & Low Weather Summary for the Past Weeks

 TemperatureHumidityPressure
High76 °F (Mar 14, 5:24 pm)93% (Mar 14, 8:35 am)30.48 "Hg (Mar 14, 8:35 am)
Low25 °F (Mar 7, 2:53 am)23% (Mar 20, 3:53 pm)29.54 "Hg (Mar 14, 5:24 pm)
Average44 °F62%30.17 "Hg
* Reported Mar 6 8:53 pm — Mar 21 9:53 pm, Prospect. Weather by CustomWeather, © 2019

Note: Actual official high and low records may vary slightly from our data, if they occured in-between our weather recording intervals... More about our weather records

Advertising

Prospect Weather History for the Previous 24 Hours

Scroll right to see more
 ConditionsComfort  
Time TempWeatherWind HumidityBarometerVisibility
9:53 pm
Thu, Mar 21
43 °FOvercast.7 mph74%30.05 "Hg10 mi
8:53 pm42 °FPassing clouds.8 mph76%30.03 "Hg10 mi
7:25 pm43 °FBroken clouds.12 mph71%30.01 "Hg10 mi
6:53 pm43 °FPartly sunny.7 mph71%30.00 "Hg10 mi
6:23 pm43 °FMore clouds than sun.6 mph74%30.00 "Hg10 mi
4:53 pm42 °FOvercast.13 mph73%29.98 "Hg10 mi
3:53 pm43 °FOvercast.15 mph68%29.95 "Hg10 mi
3:31 pm43 °FLight rain. Mostly cloudy.14 mph68%29.94 "Hg10 mi
2:53 pm43 °FOvercast.10 mph65%29.95 "Hg10 mi
2:00 pm44 °FOvercast.14 mph63%29.94 "Hg10 mi
12:53 pm46 °FLight rain. Mostly cloudy.14 mph71%29.93 "Hg10 mi
12:29 pm47 °FCloudy.7 mph74%29.93 "Hg10 mi
12:08 pm48 °FCloudy.6 mph71%29.93 "Hg10 mi
11:53 am47 °FCloudy.12 mph74%29.93 "Hg9 mi
10:53 am46 °FOvercast.7 mph79%29.93 "Hg7 mi
9:53 am45 °FFog.9 mph86%29.93 "Hg6 mi
9:12 am45 °FFog.7 mph90%29.93 "Hg5 mi
8:36 am45 °FFog.8 mph90%29.93 "Hg4 mi
7:53 am45 °FFog.5 mph90%29.93 "Hg6 mi
6:53 am44 °FPassing clouds.6 mph89%29.93 "Hg7 mi
6:35 am45 °FMostly cloudy.6 mph90%29.94 "Hg7 mi
5:53 am45 °FMostly cloudy.6 mph93%29.94 "Hg8 mi
5:27 am45 °FLight rain. Mostly cloudy.N/A90%29.95 "Hg7 mi
5:20 am45 °FLight rain. Fog.N/A90%29.95 "Hg6 mi
4:53 am45 °FLight rain. Overcast.9 mph90%29.95 "Hg9 mi
4:41 am45 °FLight rain. Mostly cloudy.6 mph93%29.95 "Hg8 mi
3:53 am45 °FLight rain. Fog.6 mph93%29.97 "Hg5 mi
3:32 am45 °FLight rain. Fog.5 mph93%29.98 "Hg6 mi
2:53 am46 °FLight rain. Overcast.5 mph86%29.99 "Hg10 mi
1:53 am46 °FLight rain. Mostly cloudy.6 mph83%30.00 "Hg10 mi
1:21 am47 °FMostly cloudy.N/A77%30.01 "Hg10 mi
12:53 am47 °FOvercast.N/A77%30.02 "Hg10 mi
11:53 pm
Wed, Mar 20
48 °FMostly cloudy.9 mph71%30.03 "Hg10 mi
Weather by CustomWeather, © 2019

See weather overview